Regional Weather Roundup
Issued by NWS Midland/Odessa, TX

Home | Current Version | Previous Version | Text Only | Print | Product List | Glossary On
Versions: 1 2 3 4 5 6 7 8 9 10 11 12 13 14 15 16 17 18 19 20 21 22 23 24 25 26 27 28 29 30 31 32 33 34 35 36 37 38 39 40 41 42 43 44 45 46 47 48 49 50
000
ASUS44 KMAF 221910
RWRMAF
MIDLAND AREA WEATHER ROUNDUP
NATIONAL WEATHER SERVICE MIDLAND TX
200 PM CDT MON MAY 22 2017

...IN SOUTHWEST TEXAS AND SOUTHEAST NEW MEXICO...

CITY           SKY/WX    TMP DP  RH WIND       PRES   REMARKS
ALPINE         SUNNY     81  51  35 S6        30.10F
ANDREWS        CLOUDY    66  59  76 E3        30.05F
ARTESIA        CLOUDY    72  57  60 SE7       30.03F
BIG SPRING     CLOUDY    69  60  71 E6        30.05F
CARLSBAD       SUNNY     72  58  61 CALM      30.01F
DRYDEN           N/A     73  64  73 E10       29.98F
FORT STOCKTON  SUNNY     82  57  42 NW12      29.99F
GUAD PASS      SUNNY     82  48  30 W16G25    30.11F
HOBBS          MOSUNNY   70  54  56 VRB3      30.06F
MARFA          SUNNY     78  54  43 SW10      30.09F
MIDLAND AIRPK  CLOUDY    71  58  64 S6        30.04F
MIDLAND INTL   CLOUDY    70  58  65 SW3       30.03F
ODESSA         CLOUDY    69  58  67 CALM      30.04F
PECOS          SUNNY     76  57  53 NE5       29.99F
PRESIDIO       FAIR      82  58  44 CALM      29.98F
SEMINOLE       PTSUNNY   66  56  68 CALM      30.06F
SNYDER         CLOUDY    70  60  70 SE6       30.04S
WINK           PTSUNNY   74  58  57 CALM      30.00F
$$
...OTHER STATIONS IN TEXAS...

CITY           SKY/WX    TMP DP  RH WIND       PRES   REMARKS
ABILENE        MOSUNNY   73  62  68 SE7       30.01F
AMARILLO       CLOUDY    67  52  58 SW8       30.07F
AUSTIN         CLOUDY    73  67  81 NE10      29.97F
BROWNSVILLE    MOSUNNY   96  73  47 S16G24    29.84F HX 105
CORPUS CHRISTI PTSUNNY   81  75  82 E9        29.88F
DALLAS FTW     PTSUNNY   77  59  53 E10       29.98F
DEL RIO        CLOUDY    73  67  81 W3        29.95F
EL PASO        MOSUNNY   86  46  24 NE6       30.00F
HOUSTON INT    LGT RAIN  68  65  90 NE10      29.95F
LUBBOCK        PTSUNNY   74  55  51 S10       30.03F
SAN ANGELO     CLOUDY    70  62  76 E9        30.01F
SAN ANTONIO    CLOUDY    74  66  76 NE9       29.96F
WACO           CLOUDY    72  64  76 E7        30.01F
WICHITA FALLS  NOT AVBL
$$
...OTHER LOCATIONS IN NEW MEXICO...

CITY           SKY/WX    TMP DP  RH WIND       PRES   REMARKS
ALAMOGORDO     SUNNY     82  41  23 NW5       30.03F
ALBUQUERQUE    MOSUNNY   73  24  16 NW12G26   30.10F
CANNON AFB     PTSUNNY   66  55  68 N7        30.08F
CLOVIS         PTSUNNY   66  52  59 W6        30.08F
HOLLOMAN AFB   MOSUNNY   83  40  21 NW3       30.05F
ROSWELL        MOSUNNY   69  54  58 NE7       30.02F
RUIDOSO        MOSUNNY   72  27  18 W18G28    30.18F
SANTA FE       MOSUNNY   75  28  17 W18G31    30.11F
TRUTH OR CONSE MOSUNNY   83  23  11 VRB6      30.05F
TUCUMCARI      MOSUNNY   69  53  56 N10       30.06F
$$




USA.gov is the U.S. government's official web portal to all federal, state and local government web resources and services.